White Pass
White Pass Ski Area
Latest observation 08/31 19:00 PDT
| Time (PDT) | Temp °F 5800' | Temp °F 4500' | RH % 5800' | RH % 4500' | Min mph 5970' | Spd mph 5970' | Gust mph 5970' | Dir ° 5970' | Pcp1 in 5800' | PcpSum in 5800' | 24Sno in 5800' | SnoHt in 5800' |
|---|---|---|---|---|---|---|---|---|---|---|---|---|
| 08/31 19:00 | 58 | 66 | 45 | 36 | 8 | 13 | 19 | 83 | 0.00 | 0.00 | 0.1 | 5.9 |
| 08/31 18:00 | 61 | 70 | 40 | 31 | 8 | 13 | 19 | 84 | 0.00 | 0.00 | 0.0 | 6.1 |
| 08/31 17:00 | 62 | 69 | 39 | 31 | 7 | 12 | 19 | 77 | 0.00 | 0.00 | 0.0 | 5.3 |
| 08/31 16:00 | 64 | 69 | 39 | 32 | 9 | 14 | 20 | 72 | 0.00 | 0.00 | 0.0 | 4.6 |
| 08/31 15:00 | 64 | 68 | 37 | 33 | 9 | 14 | 20 | 75 | 0.00 | 0.00 | 0.0 | 4.7 |
| 08/31 14:00 | 63 | 67 | 39 | 35 | 10 | 14 | 20 | 75 | 0.00 | 0.00 | -0.3 | 4.5 |
| 08/31 13:00 | 63 | 65 | 43 | 39 | 9 | 15 | 21 | 73 | 0.00 | 0.00 | -0.2 | 4.8 |
| 08/31 12:00 | 61 | 63 | 46 | 43 | 11 | 15 | 21 | 70 | 0.00 | 0.00 | 0.0 | 5.3 |
| 08/31 11:00 | 58 | 59 | 50 | 53 | 12 | 18 | 23 | 82 | 0.00 | 0.00 | 0.1 | 5.7 |
| 08/31 10:00 | 54 | 54 | 54 | 64 | 12 | 17 | 21 | 81 | 0.00 | 0.00 | 0.1 | 6.3 |
| 08/31 09:00 | 55 | 52 | 52 | 70 | 11 | 16 | 23 | 94 | 0.00 | 0.00 | 0.1 | 6.9 |
| 08/31 08:00 | 50 | 49 | 60 | 81 | 6 | 10 | 20 | 106 | 0.00 | 0.00 | 0.2 | 7.2 |
| 08/31 07:00 | 48 | 44 | 64 | 94 | 6 | 7 | 9 | 109 | 0.00 | 0.00 | 0.2 | 7.5 |
| 08/31 06:00 | 48 | 43 | 65 | 95 | 5 | 7 | 11 | 107 | 0.00 | 0.00 | 0.2 | 7.4 |
| 08/31 05:00 | 50 | 43 | 61 | 96 | 4 | 6 | 8 | 115 | 0.00 | 0.00 | 0.2 | 7.1 |
| 08/31 04:00 | 49 | 44 | 67 | 96 | 0 | 2 | 6 | 127 | 0.00 | 0.00 | 0.2 | 7.3 |
| 08/31 03:00 | 51 | 44 | 62 | 95 | 0 | 3 | 7 | 204 | 0.00 | 0.00 | 0.1 | 7.4 |
| 08/31 02:00 | 50 | 45 | 65 | 95 | 0 | 1 | 4 | 162 | 0.00 | 0.00 | 0.1 | 7.4 |
| 08/31 01:00 | 49 | 45 | 73 | 95 | 0 | 2 | 4 | 186 | 0.00 | 0.00 | 0.2 | 7.5 |
| 08/31 00:00 | 48 | 44 | 80 | 94 | 0 | 1 | 4 | 179 | 0.00 | 0.00 | 0.1 | 7.4 |
| 08/30 23:00 | 48 | 45 | 79 | 92 | 0 | 4 | 7 | 91 | 0.00 | 0.00 | 0.2 | 7.1 |
| 08/30 22:00 | 47 | 46 | 85 | 90 | 0 | 4 | 6 | 139 | 0.00 | 0.00 | 0.1 | 7.5 |
| 08/30 21:00 | 46 | 48 | 87 | 87 | 2 | 7 | 11 | 254 | 0.00 | 0.00 | 0.1 | 7.7 |
| 08/30 20:00 | 47 | 51 | 85 | 80 | 6 | 9 | 13 | 259 | 0.00 | 0.00 | 0.2 | 7.4 |

